Weather History for Hawthorne, CA

Change the Weather History Date:

Saturday, March 10, 2012

  Actual Average Record
Temperature  
Mean Temperature 63 °F -  
Max Temperature 73 °F 64 °F 84 °F (2008)
Min Temperature 53 °F 51 °F 39 °F (1962)
Degree Days  
Heating Degree Days 2    
Growing Degree Days 13 (Base 50)    
Moisture  
Dew Point 40 °F    
Average Humidity 50    
Maximum Humidity 77    
Minimum Humidity 21    
Precipitation  
Precipitation 0.00 in - - ()
Sea Level Pressure  
Sea Level Pressure 30.00 in    
Wind  
Wind Speed 3 mph (South)    
Max Wind Speed 13 mph    
Max Gust Speed -    
Visibility 10 miles    
Events      
Averages and records for this station are not official NWS values.
T = Trace of Precipitation, MM = Missing Value Source: NWS Daily Summary

Daily Weather History Graph

Daily Weather History Graph

Search for Another Location

Airport:

Trip Planner

Search our weather history database for the weather conditions in past years. The results will help you decide how hot, cold, wet, or windy it might be!

Date:

Astronomy

Mar. 10, 2012 Rise Set
Actual Time 6:09 AM PST 5:57 PM PST
Civil Twilight 5:44 AM PST 6:22 PM PST
Nautical Twilight 5:15 AM PST 6:51 PM PST
Astronomical Twilight 4:46 AM PST 7:20 PM PST
Moon 9:03 PM PST (3/10) 7:18 AM PST (3/10)
Length of Visible Light 12h 37m
Length of Day
11h 47m
Waning Gibbous, 92% of the Moon is Illuminated
Mar 10
Waning Gibbous
Mar 14
Last Quarter
Mar 22
New
Mar 30
First Quarter
Apr 6
Full

Hourly Weather History & Observations

Time (PST) Temp. Dew Point Humidity Pressure Visibility Wind Dir Wind Speed Gust Speed Precip Events Conditions
12:53 AM 57.0 °F 39.0 °F 51% 30.01 in 10.0 mi Calm Calm - N/A   Clear
1:53 AM 55.9 °F 39.9 °F 55% 30.00 in 10.0 mi Calm Calm - N/A   Clear
2:53 AM 55.0 °F 39.0 °F 55% 29.99 in 10.0 mi Calm Calm - N/A   Clear
3:53 AM 53.1 °F 37.9 °F 57% 29.99 in 10.0 mi Calm Calm - N/A   Clear
4:53 AM 54.0 °F 28.9 °F 38% 29.98 in 10.0 mi Calm Calm - N/A   Clear
5:53 AM 54.0 °F 28.0 °F 37% 29.99 in 10.0 mi Calm Calm - N/A   Clear
6:53 AM 55.0 °F 34.0 °F 45% 30.01 in 10.0 mi Calm Calm - N/A   Clear
7:53 AM 60.1 °F 28.0 °F 30% 30.02 in 10.0 mi ENE 4.6 mph - N/A   Clear
8:53 AM 62.1 °F 41.0 °F 46% 30.03 in 10.0 mi ESE 6.9 mph - N/A   Clear
9:53 AM 66.0 °F 37.0 °F 34% 30.02 in 10.0 mi SE 6.9 mph - N/A   Clear
10:53 AM 69.1 °F 37.0 °F 31% 30.01 in 10.0 mi SE 9.2 mph - N/A   Clear
11:05 AM 69.8 °F 37.4 °F 31% 30.01 in 2.0 mi SSE 8.1 mph - N/A   Haze
11:14 AM 69.8 °F 35.6 °F 28% 30.01 in 10.0 mi SE 6.9 mph - N/A   Clear
11:53 AM 71.1 °F 35.1 °F 27% 30.00 in 10.0 mi ESE 4.6 mph - N/A   Clear
12:53 PM 73.9 °F 30.9 °F 21% 29.98 in 10.0 mi Variable 4.6 mph - N/A   Clear
1:53 PM 70.0 °F 45.0 °F 41% 29.97 in 10.0 mi West 12.7 mph - N/A   Clear
2:53 PM 64.9 °F 48.0 °F 54% 29.97 in 10.0 mi WSW 9.2 mph - N/A   Clear
3:53 PM 64.9 °F 46.0 °F 50% 29.96 in 10.0 mi WSW 9.2 mph - N/A   Clear
4:53 PM 64.9 °F 41.0 °F 42% 29.96 in 10.0 mi West 8.1 mph - N/A   Clear
5:53 PM 60.1 °F 50.0 °F 69% 29.97 in 10.0 mi WSW 5.8 mph - N/A   Clear
6:53 PM 59.0 °F 46.0 °F 62% 29.99 in 10.0 mi WSW 8.1 mph - N/A   Clear
7:53 PM 57.0 °F 48.0 °F 72% 30.01 in 10.0 mi SW 4.6 mph - N/A   Clear
8:53 PM 57.0 °F 48.9 °F 74% 30.03 in 10.0 mi SSW 4.6 mph - N/A   Clear
9:53 PM 57.0 °F 46.9 °F 69% 30.03 in 10.0 mi Calm Calm - N/A   Clear
10:53 PM 55.9 °F 46.0 °F 69% 30.02 in 10.0 mi Calm Calm - N/A   Clear
11:35 PM 55.4 °F 48.2 °F 77% 30.03 in 10.0 mi East 3.5 mph - N/A   Mostly Cloudy
11:53 PM 55.9 °F 48.9 °F 77% 30.02 in 10.0 mi East 3.5 mph - N/A   Overcast